owner,sensor,date,latitude,longitude,vertical_datum,wind_speed,wind_to_direction,wind_speed_of_gust,qcFlag 
ADCP,ioos:station:wmo:42361:1,2014-02-01T00:30:00Z,27.5500,-92.4900,122.0,7.5,148.0,99.0,'11111222,11111222,11144222' 
ADCP,ioos:station:wmo:42361:1,2014-02-01T01:30:00Z,27.5500,-92.4900,122.0,7.4,146.0,99.0,'11111222,11111222,11144222' 
ADCP,ioos:station:wmo:42361:1,2014-02-01T02:30:00Z,27.5500,-92.4900,122.0,7.8,133.0,99.0,'11111222,11111222,11144222' 
ADCP,ioos:station:wmo:42361:1,2014-02-01T03:30:00Z,27.5500,-92.4900,122.0,8.1,128.0,99.0,'11111222,11111222,11144222' 
ADCP,ioos:station:wmo:42361:1,2014-02-01T04:30:00Z,27.5500,-92.4900,122.0,8.3,134.0,99.0,'11111222,11111222,11144222' 
ADCP,ioos:station:wmo:42361:1,2014-02-01T05:30:00Z,27.5500,-92.4900,122.0,8.6,140.0,99.0,'11111222,11111222,11144222' 
ADCP,ioos:station:wmo:42361:1,2014-02-01T06:30:00Z,27.5500,-92.4900,122.0,9.4,146.0,99.0,'11111222,11111222,11144222' 
ADCP,ioos:station:wmo:42361:1,2014-02-01T07:30:00Z,27.5500,-92.4900,122.0,10.4,151.0,99.0,'11111222,11111222,11144222' 
ADCP,ioos:station:wmo:42361:1,2014-02-01T08:30:00Z,27.5500,-92.4900,122.0,10.7,152.0,99.0,'11111222,11111222,11144222' 
ADCP,ioos:station:wmo:42361:1,2014-02-01T09:30:00Z,27.5500,-92.4900,122.0,11.2,151.0,99.0,'11111222,11111222,11144222' 
ADCP,ioos:station:wmo:42361:1,2014-02-01T10:30:00Z,27.5500,-92.4900,122.0,11.9,150.0,99.0,'11111222,11111222,11144222' 
ADCP,ioos:station:wmo:42361:1,2014-02-01T11:30:00Z,27.5500,-92.4900,122.0,11.6,155.0,99.0,'11111222,11111222,11144222' 
ADCP,ioos:station:wmo:42361:1,2014-02-01T12:30:00Z,27.5500,-92.4900,122.0,10.8,154.0,99.0,'11111222,11111222,11144222' 
ADCP,ioos:station:wmo:42361:1,2014-02-01T13:30:00Z,27.5500,-92.4900,122.0,11.6,156.0,99.0,'11111222,11111222,11144222' 
ADCP,ioos:station:wmo:42361:1,2014-02-01T14:30:00Z,27.5500,-92.4900,122.0,11.3,160.0,99.0,'11111222,11111222,11144222' 
ADCP,ioos:station:wmo:42361:1,2014-02-01T15:30:00Z,27.5500,-92.4900,122.0,10.1,164.0,99.0,'11111222,11111222,11144222' 
ADCP,ioos:station:wmo:42361:1,2014-02-01T16:30:00Z,27.5500,-92.4900,122.0,8.7,157.0,99.0,'11111222,11111222,11144222' 
ADCP,ioos:station:wmo:42361:1,2014-02-01T17:30:00Z,27.5500,-92.4900,122.0,8.1,150.0,99.0,'11111222,11111222,11144222' 
ADCP,ioos:station:wmo:42361:1,2014-02-01T18:30:00Z,27.5500,-92.4900,122.0,10.0,150.0,99.0,'11111222,11111222,11144222' 
ADCP,ioos:station:wmo:42361:1,2014-02-01T19:30:00Z,27.5500,-92.4900,122.0,10.7,149.0,99.0,'11111222,11111222,11144222' 
ADCP,ioos:station:wmo:42361:1,2014-02-01T20:30:00Z,27.5500,-92.4900,122.0,11.2,150.0,99.0,'11111222,11111222,11144222' 
ADCP,ioos:station:wmo:42361:1,2014-02-01T21:30:00Z,27.5500,-92.4900,122.0,10.4,148.0,99.0,'11111222,11111222,11144222' 
ADCP,ioos:station:wmo:42361:1,2014-02-01T22:30:00Z,27.5500,-92.4900,122.0,10.7,141.0,99.0,'11111222,11111222,11144222' 
ADCP,ioos:station:wmo:42361:1,2014-02-01T23:30:00Z,27.5500,-92.4900,122.0,12.4,140.0,99.0,'11111222,11111222,11144222' 
ADCP,ioos:station:wmo:42361:1,2014-02-02T00:30:00Z,27.5500,-92.4900,122.0,13.4,140.0,99.0,'11111222,11111222,11144222' 
ADCP,ioos:station:wmo:42361:1,2014-02-02T01:30:00Z,27.5500,-92.4900,122.0,13.3,144.0,99.0,'11111222,11111222,11144222' 
ADCP,ioos:station:wmo:42361:1,2014-02-02T02:30:00Z,27.5500,-92.4900,122.0,12.3,147.0,99.0,'11111222,11111222,11144222' 
ADCP,ioos:station:wmo:42361:1,2014-02-02T03:30:00Z,27.5500,-92.4900,122.0,12.4,140.0,99.0,'11111222,11111222,11144222' 
ADCP,ioos:station:wmo:42361:1,2014-02-02T04:30:00Z,27.5500,-92.4900,122.0,12.6,147.0,99.0,'11111222,11111222,11144222' 
ADCP,ioos:station:wmo:42361:1,2014-02-02T05:30:00Z,27.5500,-92.4900,122.0,13.2,150.0,99.0,'11111222,11111222,11144222' 
ADCP,ioos:station:wmo:42361:1,2014-02-02T06:30:00Z,27.5500,-92.4900,122.0,13.6,150.0,99.0,'11111222,11111222,11144222' 
ADCP,ioos:station:wmo:42361:1,2014-02-02T07:30:00Z,27.5500,-92.4900,122.0,13.3,150.0,99.0,'11111222,11111222,11144222' 
ADCP,ioos:station:wmo:42361:1,2014-02-02T08:30:00Z,27.5500,-92.4900,122.0,13.4,153.0,99.0,'11111222,11111222,11144222' 
ADCP,ioos:station:wmo:42361:1,2014-02-02T09:30:00Z,27.5500,-92.4900,122.0,12.0,150.0,99.0,'11111222,11111222,11144222' 
ADCP,ioos:station:wmo:42361:1,2014-02-02T10:30:00Z,27.5500,-92.4900,122.0,12.3,157.0,99.0,'11111222,11111222,11144222' 
ADCP,ioos:station:wmo:42361:1,2014-02-02T11:30:00Z,27.5500,-92.4900,122.0,12.5,158.0,99.0,'11111222,11111222,11144222' 
ADCP,ioos:station:wmo:42361:1,2014-02-02T12:30:00Z,27.5500,-92.4900,122.0,12.9,157.0,99.0,'11111222,11111222,11144222' 
ADCP,ioos:station:wmo:42361:1,2014-02-02T13:30:00Z,27.5500,-92.4900,122.0,13.2,159.0,99.0,'11111222,11111222,11144222' 
ADCP,ioos:station:wmo:42361:1,2014-02-02T14:30:00Z,27.5500,-92.4900,122.0,13.8,150.0,99.0,'11111222,11111222,11144222' 
ADCP,ioos:station:wmo:42361:1,2014-02-02T15:30:00Z,27.5500,-92.4900,122.0,14.9,160.0,99.0,'11111222,11111222,11144222' 
ADCP,ioos:station:wmo:42361:1,2014-02-02T16:30:00Z,27.5500,-92.4900,122.0,15.2,160.0,99.0,'11111222,11111222,11144222' 
ADCP,ioos:station:wmo:42361:1,2014-02-02T17:30:00Z,27.5500,-92.4900,122.0,15.9,160.0,99.0,'11111222,11111222,11144222' 
ADCP,ioos:station:wmo:42361:1,2014-02-02T18:30:00Z,27.5500,-92.4900,122.0,15.5,165.0,99.0,'11111222,11111222,11144222' 
ADCP,ioos:station:wmo:42361:1,2014-02-02T19:30:00Z,27.5500,-92.4900,122.0,14.4,170.0,99.0,'11111222,11111222,11144222' 
ADCP,ioos:station:wmo:42361:1,2014-02-02T20:30:00Z,27.5500,-92.4900,122.0,12.8,177.0,99.0,'11111222,11111222,11144222' 
ADCP,ioos:station:wmo:42361:1,2014-02-02T21:30:00Z,27.5500,-92.4900,122.0,11.9,174.0,99.0,'11111222,11111222,11144222' 
ADCP,ioos:station:wmo:42361:1,2014-02-02T22:30:00Z,27.5500,-92.4900,122.0,10.8,175.0,99.0,'11111222,11111222,11144222' 
ADCP,ioos:station:wmo:42361:1,2014-02-02T23:30:00Z,27.5500,-92.4900,122.0,9.7,180.0,99.0,'11111222,11111222,11144222' 
ADCP,ioos:station:wmo:42361:1,2014-02-03T00:30:00Z,27.5500,-92.4900,122.0,9.5,180.0,99.0,'11111222,11111222,11144222' 
ADCP,ioos:station:wmo:42361:1,2014-02-03T01:30:00Z,27.5500,-92.4900,122.0,9.8,184.0,99.0,'11111222,11111222,11144222' 
ADCP,ioos:station:wmo:42361:1,2014-02-03T02:30:00Z,27.5500,-92.4900,122.0,10.3,189.0,99.0,'11111222,11111222,11144222' 
ADCP,ioos:station:wmo:42361:1,2014-02-03T03:30:00Z,27.5500,-92.4900,122.0,9.8,191.0,99.0,'11111222,11111222,11144222' 
ADCP,ioos:station:wmo:42361:1,2014-02-03T04:30:00Z,27.5500,-92.4900,122.0,10.2,196.0,99.0,'11111222,11111222,11144222' 
ADCP,ioos:station:wmo:42361:1,2014-02-03T05:30:00Z,27.5500,-92.4900,122.0,9.8,204.0,99.0,'11111222,11111222,11144222' 
ADCP,ioos:station:wmo:42361:1,2014-02-03T06:30:00Z,27.5500,-92.4900,122.0,9.9,307.0,99.0,'11111222,11111222,11144222' 
ADCP,ioos:station:wmo:42361:1,2014-02-03T07:30:00Z,27.5500,-92.4900,122.0,11.0,352.0,99.0,'11111222,11111222,11144222' 
ADCP,ioos:station:wmo:42361:1,2014-02-03T08:30:00Z,27.5500,-92.4900,122.0,11.3,360.0,99.0,'11111222,11144222,11144222' 
ADCP,ioos:station:wmo:42361:1,2014-02-03T09:30:00Z,27.5500,-92.4900,122.0,11.9,360.0,99.0,'11111222,11144222,11144222' 
ADCP,ioos:station:wmo:42361:1,2014-02-03T10:30:00Z,27.5500,-92.4900,122.0,12.5,1.0,99.0,'11111222,11111222,11144222' 
ADCP,ioos:station:wmo:42361:1,2014-02-03T11:30:00Z,27.5500,-92.4900,122.0,12.6,4.0,99.0,'11111222,11111222,11144222' 
ADCP,ioos:station:wmo:42361:1,2014-02-03T12:30:00Z,27.5500,-92.4900,122.0,12.9,7.0,99.0,'11111222,11111222,11144222' 
ADCP,ioos:station:wmo:42361:1,2014-02-03T13:30:00Z,27.5500,-92.4900,122.0,11.4,10.0,99.0,'11111222,11111222,11144222' 
ADCP,ioos:station:wmo:42361:1,2014-02-03T14:30:00Z,27.5500,-92.4900,122.0,11.0,10.0,99.0,'11111222,11111222,11144222' 
ADCP,ioos:station:wmo:42361:1,2014-02-03T15:30:00Z,27.5500,-92.4900,122.0,12.0,14.0,99.0,'11111222,11111222,11144222' 
ADCP,ioos:station:wmo:42361:1,2014-02-03T16:30:00Z,27.5500,-92.4900,122.0,10.7,19.0,99.0,'11111222,11111222,11144222' 
ADCP,ioos:station:wmo:42361:1,2014-02-03T17:30:00Z,27.5500,-92.4900,122.0,9.7,19.0,99.0,'11111222,11111222,11144222' 
ADCP,ioos:station:wmo:42361:1,2014-02-03T18:30:00Z,27.5500,-92.4900,122.0,8.3,26.0,99.0,'11111222,11111222,11144222' 
ADCP,ioos:station:wmo:42361:1,2014-02-03T19:30:00Z,27.5500,-92.4900,122.0,8.1,24.0,99.0,'11111222,11111222,11144222' 
ADCP,ioos:station:wmo:42361:1,2014-02-03T20:30:00Z,27.5500,-92.4900,122.0,7.7,34.0,99.0,'11111222,11111222,11144222' 
ADCP,ioos:station:wmo:42361:1,2014-02-03T21:30:00Z,27.5500,-92.4900,122.0,10.4,75.0,99.0,'11111222,11111222,11144222' 
ADCP,ioos:station:wmo:42361:1,2014-02-03T22:30:00Z,27.5500,-92.4900,122.0,99.0,0.0,99.0,'11144222,11111222,11144222' 
ADCP,ioos:station:wmo:42361:1,2014-02-03T23:30:00Z,27.5500,-92.4900,122.0,99.0,109.0,99.0,'11144222,11111222,11144222' 
ADCP,ioos:station:wmo:42361:1,2014-02-04T00:30:00Z,27.5500,-92.4900,122.0,99.0,41.0,99.0,'11144222,11111222,11144222' 
ADCP,ioos:station:wmo:42361:1,2014-02-04T01:30:00Z,27.5500,-92.4900,122.0,16.7,196.0,99.0,'11111222,11111222,11144222' 
ADCP,ioos:station:wmo:42361:1,2014-02-04T02:30:00Z,27.5500,-92.4900,122.0,9.3,83.0,99.0,'11111222,11111222,11144222' 
ADCP,ioos:station:wmo:42361:1,2014-02-04T03:30:00Z,27.5500,-92.4900,122.0,9.9,86.0,99.0,'11111222,11111222,11144222' 
ADCP,ioos:station:wmo:42361:1,2014-02-04T04:30:00Z,27.5500,-92.4900,122.0,10.4,91.0,99.0,'11111222,11111222,11144222' 
ADCP,ioos:station:wmo:42361:1,2014-02-04T05:30:00Z,27.5500,-92.4900,122.0,11.4,97.0,99.0,'11111222,11111222,11144222' 
ADCP,ioos:station:wmo:42361:1,2014-02-04T06:30:00Z,27.5500,-92.4900,122.0,11.4,101.0,99.0,'11111222,11111222,11144222' 
ADCP,ioos:station:wmo:42361:1,2014-02-04T07:30:00Z,27.5500,-92.4900,122.0,10.6,100.0,99.0,'11111222,11111222,11144222' 
ADCP,ioos:station:wmo:42361:1,2014-02-04T08:30:00Z,27.5500,-92.4900,122.0,11.4,109.0,99.0,'11111222,11111222,11144222' 
ADCP,ioos:station:wmo:42361:1,2014-02-04T09:30:00Z,27.5500,-92.4900,122.0,10.9,116.0,99.0,'11111222,11111222,11144222' 
ADCP,ioos:station:wmo:42361:1,2014-02-04T10:30:00Z,27.5500,-92.4900,122.0,12.0,121.0,99.0,'11111222,11111222,11144222' 
ADCP,ioos:station:wmo:42361:1,2014-02-04T11:30:00Z,27.5500,-92.4900,122.0,12.7,138.0,99.0,'11111222,11111222,11144222' 
ADCP,ioos:station:wmo:42361:1,2014-02-04T12:30:00Z,27.5500,-92.4900,122.0,13.9,149.0,99.0,'11111222,11111222,11144222' 
ADCP,ioos:station:wmo:42361:1,2014-02-04T13:30:00Z,27.5500,-92.4900,122.0,14.6,144.0,99.0,'11111222,11111222,11144222' 
ADCP,ioos:station:wmo:42361:1,2014-02-04T14:30:00Z,27.5500,-92.4900,122.0,14.9,150.0,99.0,'11111222,11111222,11144222' 
ADCP,ioos:station:wmo:42361:1,2014-02-04T15:30:00Z,27.5500,-92.4900,122.0,13.6,156.0,99.0,'11111222,11111222,11144222' 
ADCP,ioos:station:wmo:42361:1,2014-02-04T16:30:00Z,27.5500,-92.4900,122.0,12.9,160.0,99.0,'11111222,11111222,11144222' 
ADCP,ioos:station:wmo:42361:1,2014-02-04T17:30:00Z,27.5500,-92.4900,122.0,12.2,168.0,99.0,'11111222,11111222,11144222' 
ADCP,ioos:station:wmo:42361:1,2014-02-04T18:30:00Z,27.5500,-92.4900,122.0,11.7,170.0,99.0,'11111222,11111222,11144222' 
ADCP,ioos:station:wmo:42361:1,2014-02-04T19:30:00Z,27.5500,-92.4900,122.0,11.9,168.0,99.0,'11111222,11111222,11144222' 
ADCP,ioos:station:wmo:42361:1,2014-02-04T20:30:00Z,27.5500,-92.4900,122.0,13.7,170.0,99.0,'11111222,11111222,11144222' 
ADCP,ioos:station:wmo:42361:1,2014-02-04T21:30:00Z,27.5500,-92.4900,122.0,15.0,170.0,99.0,'11111222,11111222,11144222' 
ADCP,ioos:station:wmo:42361:1,2014-02-04T22:30:00Z,27.5500,-92.4900,122.0,15.0,178.0,99.0,'11111222,11111222,11144222' 
ADCP,ioos:station:wmo:42361:1,2014-02-04T23:30:00Z,27.5500,-92.4900,122.0,15.0,180.0,99.0,'11111222,11111222,11144222' 
ADCP,ioos:station:wmo:42361:1,2014-02-05T00:30:00Z,27.5500,-92.4900,122.0,15.2,187.0,99.0,'11111222,11111222,11144222' 
ADCP,ioos:station:wmo:42361:1,2014-02-05T01:30:00Z,27.5500,-92.4900,122.0,13.5,190.0,99.0,'11111222,11111222,11144222' 
ADCP,ioos:station:wmo:42361:1,2014-02-05T02:30:00Z,27.5500,-92.4900,122.0,10.6,255.0,99.0,'11111222,11111222,11144222' 
ADCP,ioos:station:wmo:42361:1,2014-02-05T03:30:00Z,27.5500,-92.4900,122.0,8.0,328.0,99.0,'11111222,11111222,11144222' 
ADCP,ioos:station:wmo:42361:1,2014-02-05T04:30:00Z,27.5500,-92.4900,122.0,7.0,328.0,99.0,'11111222,11111222,11144222' 
ADCP,ioos:station:wmo:42361:1,2014-02-05T05:30:00Z,27.5500,-92.4900,122.0,6.3,351.0,99.0,'11111222,11111222,11144222' 
ADCP,ioos:station:wmo:42361:1,2014-02-05T06:30:00Z,27.5500,-92.4900,122.0,10.7,360.0,99.0,'11111222,11144222,11144222' 
ADCP,ioos:station:wmo:42361:1,2014-02-05T07:30:00Z,27.5500,-92.4900,122.0,11.7,2.0,99.0,'11111222,11111222,11144222' 
ADCP,ioos:station:wmo:42361:1,2014-02-05T08:30:00Z,27.5500,-92.4900,122.0,12.2,10.0,99.0,'11111222,11111222,11144222' 
ADCP,ioos:station:wmo:42361:1,2014-02-05T09:30:00Z,27.5500,-92.4900,122.0,14.3,8.0,99.0,'11111222,11111222,11144222' 
ADCP,ioos:station:wmo:42361:1,2014-02-05T10:30:00Z,27.5500,-92.4900,122.0,15.1,15.0,99.0,'11111222,11111222,11144222' 
ADCP,ioos:station:wmo:42361:1,2014-02-05T11:30:00Z,27.5500,-92.4900,122.0,15.2,20.0,99.0,'11111222,11111222,11144222' 
ADCP,ioos:station:wmo:42361:1,2014-02-05T12:30:00Z,27.5500,-92.4900,122.0,14.9,21.0,99.0,'11111222,11111222,11144222' 
ADCP,ioos:station:wmo:42361:1,2014-02-05T13:30:00Z,27.5500,-92.4900,122.0,14.7,22.0,99.0,'11111222,11111222,11144222' 
ADCP,ioos:station:wmo:42361:1,2014-02-05T14:30:00Z,27.5500,-92.4900,122.0,14.4,14.0,99.0,'11111222,11111222,11144222' 
ADCP,ioos:station:wmo:42361:1,2014-02-05T15:30:00Z,27.5500,-92.4900,122.0,14.8,16.0,99.0,'11111222,11111222,11144222' 
ADCP,ioos:station:wmo:42361:1,2014-02-05T16:30:00Z,27.5500,-92.4900,122.0,15.0,19.0,99.0,'11111222,11111222,11144222' 
ADCP,ioos:station:wmo:42361:1,2014-02-05T17:30:00Z,27.5500,-92.4900,122.0,14.7,25.0,99.0,'11111222,11111222,11144222' 
ADCP,ioos:station:wmo:42361:1,2014-02-05T18:30:00Z,27.5500,-92.4900,122.0,13.8,23.0,99.0,'11111222,11111222,11144222' 
ADCP,ioos:station:wmo:42361:1,2014-02-05T19:30:00Z,27.5500,-92.4900,122.0,13.5,19.0,99.0,'11111222,11111222,11144222' 
ADCP,ioos:station:wmo:42361:1,2014-02-05T20:30:00Z,27.5500,-92.4900,122.0,13.8,16.0,99.0,'11111222,11111222,11144222' 
ADCP,ioos:station:wmo:42361:1,2014-02-05T21:30:00Z,27.5500,-92.4900,122.0,13.7,16.0,99.0,'11111222,11111222,11144222' 
ADCP,ioos:station:wmo:42361:1,2014-02-05T22:30:00Z,27.5500,-92.4900,122.0,13.8,14.0,99.0,'11111222,11111222,11144222' 
ADCP,ioos:station:wmo:42361:1,2014-02-05T23:30:00Z,27.5500,-92.4900,122.0,13.8,16.0,99.0,'11111222,11111222,11144222' 
ADCP,ioos:station:wmo:42361:1,2014-02-06T00:30:00Z,27.5500,-92.4900,122.0,13.4,19.0,99.0,'11111222,11111222,11144222' 
ADCP,ioos:station:wmo:42361:1,2014-02-06T01:30:00Z,27.5500,-92.4900,122.0,13.8,19.0,99.0,'11111222,11111222,11144222' 
ADCP,ioos:station:wmo:42361:1,2014-02-06T02:30:00Z,27.5500,-92.4900,122.0,14.1,26.0,99.0,'11111222,11111222,11144222' 
ADCP,ioos:station:wmo:42361:1,2014-02-06T03:30:00Z,27.5500,-92.4900,122.0,14.4,29.0,99.0,'11111222,11111222,11144222' 
ADCP,ioos:station:wmo:42361:1,2014-02-06T04:30:00Z,27.5500,-92.4900,122.0,13.9,33.0,99.0,'11111222,11111222,11144222' 
ADCP,ioos:station:wmo:42361:1,2014-02-06T05:30:00Z,27.5500,-92.4900,122.0,13.7,35.0,99.0,'11111222,11111222,11144222' 
ADCP,ioos:station:wmo:42361:1,2014-02-06T06:30:00Z,27.5500,-92.4900,122.0,13.4,37.0,99.0,'11111222,11111222,11144222' 
ADCP,ioos:station:wmo:42361:1,2014-02-06T07:30:00Z,27.5500,-92.4900,122.0,13.8,38.0,99.0,'11111222,11111222,11144222' 
ADCP,ioos:station:wmo:42361:1,2014-02-06T08:30:00Z,27.5500,-92.4900,122.0,13.3,41.0,99.0,'11111222,11111222,11144222' 
ADCP,ioos:station:wmo:42361:1,2014-02-06T09:30:00Z,27.5500,-92.4900,122.0,13.2,38.0,99.0,'11111222,11111222,11144222' 
ADCP,ioos:station:wmo:42361:1,2014-02-06T10:30:00Z,27.5500,-92.4900,122.0,13.0,44.0,99.0,'11111222,11111222,11144222' 
ADCP,ioos:station:wmo:42361:1,2014-02-06T11:30:00Z,27.5500,-92.4900,122.0,12.9,49.0,99.0,'11111222,11111222,11144222' 
ADCP,ioos:station:wmo:42361:1,2014-02-06T12:30:00Z,27.5500,-92.4900,122.0,99.0,267.0,99.0,'11144222,11111222,11144222' 
ADCP,ioos:station:wmo:42361:1,2014-02-06T13:30:00Z,27.5500,-92.4900,122.0,11.2,46.0,99.0,'11111222,11111222,11144222' 
ADCP,ioos:station:wmo:42361:1,2014-02-06T14:30:00Z,27.5500,-92.4900,122.0,11.5,35.0,99.0,'11111222,11111222,11144222' 
ADCP,ioos:station:wmo:42361:1,2014-02-06T15:30:00Z,27.5500,-92.4900,122.0,11.7,21.0,99.0,'11111222,11111222,11144222' 
ADCP,ioos:station:wmo:42361:1,2014-02-06T16:30:00Z,27.5500,-92.4900,122.0,12.1,11.0,99.0,'11111222,11111222,11144222' 
ADCP,ioos:station:wmo:42361:1,2014-02-06T17:30:00Z,27.5500,-92.4900,122.0,12.5,9.0,99.0,'11111222,11111222,11144222' 
ADCP,ioos:station:wmo:42361:1,2014-02-06T18:30:00Z,27.5500,-92.4900,122.0,13.8,25.0,99.0,'11111222,11111222,11144222' 
ADCP,ioos:station:wmo:42361:1,2014-02-06T19:30:00Z,27.5500,-92.4900,122.0,12.6,32.0,99.0,'11111222,11111222,11144222' 
ADCP,ioos:station:wmo:42361:1,2014-02-06T20:30:00Z,27.5500,-92.4900,122.0,12.0,37.0,99.0,'11111222,11111222,11144222' 
ADCP,ioos:station:wmo:42361:1,2014-02-06T21:30:00Z,27.5500,-92.4900,122.0,11.4,44.0,99.0,'11111222,11111222,11144222' 
ADCP,ioos:station:wmo:42361:1,2014-02-06T22:30:00Z,27.5500,-92.4900,122.0,11.2,38.0,99.0,'11111222,11111222,11144222' 
ADCP,ioos:station:wmo:42361:1,2014-02-06T23:30:00Z,27.5500,-92.4900,122.0,12.2,29.0,99.0,'11111222,11111222,11144222' 
ADCP,ioos:station:wmo:42361:1,2014-02-07T00:30:00Z,27.5500,-92.4900,122.0,12.8,34.0,99.0,'11111222,11111222,11144222' 
ADCP,ioos:station:wmo:42361:1,2014-02-07T01:30:00Z,27.5500,-92.4900,122.0,13.2,39.0,99.0,'11111222,11111222,11144222' 
ADCP,ioos:station:wmo:42361:1,2014-02-07T02:30:00Z,27.5500,-92.4900,122.0,13.1,40.0,99.0,'11111222,11111222,11144222' 
ADCP,ioos:station:wmo:42361:1,2014-02-07T03:30:00Z,27.5500,-92.4900,122.0,18.4,139.0,99.0,'11111222,11111222,11144222' 
ADCP,ioos:station:wmo:42361:1,2014-02-07T04:30:00Z,27.5500,-92.4900,122.0,21.7,198.0,99.0,'11111222,11111222,11144222' 
ADCP,ioos:station:wmo:42361:1,2014-02-07T05:30:00Z,27.5500,-92.4900,122.0,14.3,78.0,99.0,'11111222,11111222,11144222' 
ADCP,ioos:station:wmo:42361:1,2014-02-07T06:30:00Z,27.5500,-92.4900,122.0,15.5,110.0,99.0,'11111222,11111222,11144222' 
ADCP,ioos:station:wmo:42361:1,2014-02-07T07:30:00Z,27.5500,-92.4900,122.0,17.2,142.0,99.0,'11111222,11111222,11144222' 
ADCP,ioos:station:wmo:42361:1,2014-02-07T08:30:00Z,27.5500,-92.4900,122.0,15.4,110.0,99.0,'11111222,11111222,11144222' 
ADCP,ioos:station:wmo:42361:1,2014-02-07T09:30:00Z,27.5500,-92.4900,122.0,11.2,42.0,99.0,'11111222,11111222,11144222' 
ADCP,ioos:station:wmo:42361:1,2014-02-07T10:30:00Z,27.5500,-92.4900,122.0,13.5,74.0,99.0,'11111222,11111222,11144222' 
ADCP,ioos:station:wmo:42361:1,2014-02-07T11:30:00Z,27.5500,-92.4900,122.0,99.0,267.0,99.0,'11144222,11111222,11144222' 
ADCP,ioos:station:wmo:42361:1,2014-02-07T12:30:00Z,27.5500,-92.4900,122.0,99.0,9.0,99.0,'11144222,11111222,11144222' 
ADCP,ioos:station:wmo:42361:1,2014-02-07T13:30:00Z,27.5500,-92.4900,122.0,13.3,77.0,99.0,'11111222,11111222,11144222' 
ADCP,ioos:station:wmo:42361:1,2014-02-07T14:30:00Z,27.5500,-92.4900,122.0,14.0,75.0,99.0,'11111222,11111222,11144222' 
ADCP,ioos:station:wmo:42361:1,2014-02-07T15:30:00Z,27.5500,-92.4900,122.0,14.5,78.0,99.0,'11111222,11111222,11144222' 
ADCP,ioos:station:wmo:42361:1,2014-02-07T16:30:00Z,27.5500,-92.4900,122.0,14.0,80.0,99.0,'11111222,11111222,11144222' 
ADCP,ioos:station:wmo:42361:1,2014-02-07T17:30:00Z,27.5500,-92.4900,122.0,13.6,86.0,99.0,'11111222,11111222,11144222' 
ADCP,ioos:station:wmo:42361:1,2014-02-07T18:30:00Z,27.5500,-92.4900,122.0,13.1,89.0,99.0,'11111222,11111222,11144222' 
ADCP,ioos:station:wmo:42361:1,2014-02-07T19:30:00Z,27.5500,-92.4900,122.0,12.0,91.0,99.0,'11111222,11111222,11144222' 
ADCP,ioos:station:wmo:42361:1,2014-02-07T20:30:00Z,27.5500,-92.4900,122.0,11.2,90.0,99.0,'11111222,11111222,11144222' 
ADCP,ioos:station:wmo:42361:1,2014-02-07T21:30:00Z,27.5500,-92.4900,122.0,10.0,87.0,99.0,'11111222,11111222,11144222' 
ADCP,ioos:station:wmo:42361:1,2014-02-07T22:30:00Z,27.5500,-92.4900,122.0,10.2,79.0,99.0,'11111222,11111222,11144222' 
ADCP,ioos:station:wmo:42361:1,2014-02-07T23:30:00Z,27.5500,-92.4900,122.0,16.7,164.0,99.0,'11111222,11111222,11144222' 
ADCP,ioos:station:wmo:42361:1,2014-02-08T00:30:00Z,27.5500,-92.4900,122.0,13.0,108.0,99.0,'11111222,11111222,11144222' 
ADCP,ioos:station:wmo:42361:1,2014-02-08T01:30:00Z,27.5500,-92.4900,122.0,11.3,79.0,99.0,'11111222,11111222,11144222' 
ADCP,ioos:station:wmo:42361:1,2014-02-08T02:30:00Z,27.5500,-92.4900,122.0,12.6,89.0,99.0,'11111222,11111222,11144222' 
ADCP,ioos:station:wmo:42361:1,2014-02-08T03:30:00Z,27.5500,-92.4900,122.0,10.8,90.0,99.0,'11111222,11111222,11144222' 
ADCP,ioos:station:wmo:42361:1,2014-02-08T04:30:00Z,27.5500,-92.4900,122.0,9.6,92.0,99.0,'11111222,11111222,11144222' 
ADCP,ioos:station:wmo:42361:1,2014-02-08T05:30:00Z,27.5500,-92.4900,122.0,7.6,95.0,99.0,'11111222,11111222,11144222' 
ADCP,ioos:station:wmo:42361:1,2014-02-08T06:30:00Z,27.5500,-92.4900,122.0,5.6,70.0,99.0,'11111222,11111222,11144222' 
ADCP,ioos:station:wmo:42361:1,2014-02-08T07:30:00Z,27.5500,-92.4900,122.0,7.7,43.0,99.0,'11111222,11111222,11144222' 
ADCP,ioos:station:wmo:42361:1,2014-02-08T08:30:00Z,27.5500,-92.4900,122.0,11.0,104.0,99.0,'11111222,11111222,11144222' 
ADCP,ioos:station:wmo:42361:1,2014-02-08T09:30:00Z,27.5500,-92.4900,122.0,8.7,104.0,99.0,'11111222,11111222,11144222' 
ADCP,ioos:station:wmo:42361:1,2014-02-08T10:30:00Z,27.5500,-92.4900,122.0,11.1,152.0,99.0,'11111222,11111222,11144222' 
ADCP,ioos:station:wmo:42361:1,2014-02-08T11:30:00Z,27.5500,-92.4900,122.0,7.6,68.0,99.0,'11111222,11111222,11144222' 
ADCP,ioos:station:wmo:42361:1,2014-02-08T12:30:00Z,27.5500,-92.4900,122.0,99.0,107.0,99.0,'11144222,11111222,11144222' 
ADCP,ioos:station:wmo:42361:1,2014-02-08T13:30:00Z,27.5500,-92.4900,122.0,99.0,-9999.0,99.0,'11144222,99999999,11144222' 
ADCP,ioos:station:wmo:42361:1,2014-02-08T14:30:00Z,27.5500,-92.4900,122.0,99.0,-9999.0,99.0,'11144222,99999999,11144222' 
ADCP,ioos:station:wmo:42361:1,2014-02-08T15:30:00Z,27.5500,-92.4900,122.0,99.0,297.0,99.0,'11144222,11111222,11144222' 
ADCP,ioos:station:wmo:42361:1,2014-02-08T16:30:00Z,27.5500,-92.4900,122.0,99.0,-9999.0,99.0,'11144222,99999999,11144222' 
ADCP,ioos:station:wmo:42361:1,2014-02-08T17:30:00Z,27.5500,-92.4900,122.0,99.0,70.0,99.0,'11144222,11111222,11144222' 
ADCP,ioos:station:wmo:42361:1,2014-02-08T18:30:00Z,27.5500,-92.4900,122.0,99.0,-9999.0,99.0,'11144222,99999999,11144222' 
ADCP,ioos:station:wmo:42361:1,2014-02-08T19:30:00Z,27.5500,-92.4900,122.0,7.7,77.0,99.0,'11111222,11111222,11144222' 
ADCP,ioos:station:wmo:42361:1,2014-02-08T20:30:00Z,27.5500,-92.4900,122.0,6.9,76.0,99.0,'11111222,11111222,11144222' 
ADCP,ioos:station:wmo:42361:1,2014-02-08T21:30:00Z,27.5500,-92.4900,122.0,6.5,76.0,99.0,'11111222,11111222,11144222' 
ADCP,ioos:station:wmo:42361:1,2014-02-08T22:30:00Z,27.5500,-92.4900,122.0,6.6,90.0,99.0,'11111222,11111222,11144222' 
ADCP,ioos:station:wmo:42361:1,2014-02-08T23:30:00Z,27.5500,-92.4900,122.0,6.9,92.0,99.0,'11111222,11111222,11144222' 
ADCP,ioos:station:wmo:42361:1,2014-02-09T00:30:00Z,27.5500,-92.4900,122.0,8.0,100.0,99.0,'11111222,11111222,11144222' 
ADCP,ioos:station:wmo:42361:1,2014-02-09T01:30:00Z,27.5500,-92.4900,122.0,7.8,108.0,99.0,'11111222,11111222,11144222' 
ADCP,ioos:station:wmo:42361:1,2014-02-09T02:30:00Z,27.5500,-92.4900,122.0,7.4,114.0,99.0,'11111222,11111222,11144222' 
ADCP,ioos:station:wmo:42361:1,2014-02-09T03:30:00Z,27.5500,-92.4900,122.0,6.9,122.0,99.0,'11111222,11111222,11144222' 
ADCP,ioos:station:wmo:42361:1,2014-02-09T04:30:00Z,27.5500,-92.4900,122.0,7.6,148.0,99.0,'11111222,11111222,11144222' 
ADCP,ioos:station:wmo:42361:1,2014-02-09T05:30:00Z,27.5500,-92.4900,122.0,6.6,151.0,99.0,'11111222,11111222,11144222' 
ADCP,ioos:station:wmo:42361:1,2014-02-09T06:30:00Z,27.5500,-92.4900,122.0,6.4,160.0,99.0,'11111222,11111222,11144222' 
ADCP,ioos:station:wmo:42361:1,2014-02-09T07:30:00Z,27.5500,-92.4900,122.0,6.6,168.0,99.0,'11111222,11111222,11144222' 